Terminal Aerodrome Forecast
Issued by NWS Charleston, WV

Current Version | Previous Version | Graphics & Text | Print | Product List | Glossary On
Versions: 1 2 3 4 5 6 7 8 9 10 11 12 13 14 15 16 17 18 19 20 21
000
FTUS41 KRLX 120900 AAA
TAFBKW
TAF AMD
KBKW 120908Z 1209/1306 15004KT P6SM SKC
     FM121500 22004KT P6SM FEW035
     FM121800 23004KT P6SM BKN035
     FM130200 VRB03KT P6SM SCT040
     FM130400 VRB03KT P6SM BKN060=

USA.gov is the U.S. government's official web portal to all federal, state and local government web resources and services.